STARLINK-2103 (47383 NORAD) Tracking and Keplerian Element Data

This shows tracking and keplerian element data for the satellite.

Feedback or suggestion? Click here.




ElementValue
Catalog47383
NameSTARLINK-2103
Epoch Orbit187
Epoch Day99.91667824
Epoch Year2021
RAAN181.7045
Inclination53.0549
Eccentricity0.0004156
Argument of Perigee6.435
Mean Anonmoly63.7943
Mean Motion15.62682433
Decay Rate9.986E-05
L11 47383U 21005AL 21099.91667824 .00009986 00000-0 11507-3 0 9996
L22 47383 53.0549 181.7045 0004156 6.4350 63.7943 15.62682433 1871

Live tracking and technical data element details for STARLINK-2103 (NORAD 47383). STARLINK-2103 can be tracked NOW for your location showing map with azimuth and elevation plus other details from your city location.

Track the satellite on the map from your city or location and see movement details for azimuth, elevation, latitude, longitude, range, height, and movement on the map or in text.







IsCatalogInMostPopularTable: catalog: 47383, numindb: 19
Update: records affected: 1



GetName: 47383 STARLINK-2103

Hit Count: updated at: Sat, 10 Apr 2021 20:04:44 GMT